SQP4606 UKHH-LUKK

Flight info

Callsign SQP4606
Flight time 1h 4m
Altitude 36000
Route ROKOX M987 TOVPU N978 GODOD P740 BOGMA Z924 SUVUR
Aircraft B738/M-SDGIJ1LRWY/SB1

Departure

Time 2026-04-29 13:45
Airport Kharkiv International Airport (UKHH)

Arrival

Time 2026-04-29 14:49
Airport Chişinău International Airport (LUKK)
Time Latitude Longitude Altitude Speed Heading
2026-04-29 13:13 49.92275 36.28073 492 ft 0 kts 240°
2026-04-29 13:25 49.92278 36.28080 492 ft 2 kts 243°
2026-04-29 13:25 49.92279 36.28083 492 ft 0 kts 247°
2026-04-29 13:26 49.92278 36.28083 492 ft 0 kts 247°
2026-04-29 13:30 49.92279 36.28083 492 ft 0 kts 247°
2026-04-29 13:31 49.92279 36.28096 492 ft 1 kts 302°
2026-04-29 13:31 49.92270 36.28114 492 ft 2 kts 299°
2026-04-29 13:31 49.92265 36.28131 493 ft 0 kts 299°
2026-04-29 13:31 49.92261 36.28141 493 ft 1 kts 261°
2026-04-29 13:32 49.92265 36.28154 493 ft 1 kts 211°
2026-04-29 13:32 49.92274 36.28156 493 ft 1 kts 160°
2026-04-29 13:32 49.92276 36.28155 494 ft 0 kts 149°
2026-04-29 13:32 49.92277 36.28155 494 ft 0 kts 144°
2026-04-29 13:33 49.92281 36.28150 494 ft 0 kts 149°
2026-04-29 13:33 49.92279 36.28151 494 ft 1 kts 149°
2026-04-29 13:34 49.92260 36.28169 493 ft 4 kts 148°
2026-04-29 13:34 49.92226 36.28201 492 ft 6 kts 149°
2026-04-29 13:34 49.92205 36.28220 491 ft 0 kts 150°
2026-04-29 13:34 49.92199 36.28225 491 ft 1 kts 150°
2026-04-29 13:35 49.92176 36.28245 490 ft 5 kts 150°
2026-04-29 13:35 49.92136 36.28281 489 ft 7 kts 149°
2026-04-29 13:35 49.92086 36.28326 488 ft 9 kts 147°
2026-04-29 13:35 49.92075 36.28340 487 ft 0 kts 139°
2026-04-29 13:36 49.92070 36.28370 487 ft 4 kts 82°
2026-04-29 13:36 49.92082 36.28413 488 ft 4 kts 60°
2026-04-29 13:36 49.92097 36.28454 488 ft 4 kts 58°
2026-04-29 13:36 49.92119 36.28473 488 ft 3 kts
2026-04-29 13:37 49.92139 36.28461 489 ft 3 kts 325°
2026-04-29 13:37 49.92171 36.28434 489 ft 7 kts 331°
2026-04-29 13:37 49.92211 36.28397 491 ft 5 kts 328°
2026-04-29 13:37 49.92251 36.28361 493 ft 7 kts 329°
2026-04-29 13:38 49.92305 36.28310 495 ft 10 kts 330°
2026-04-29 13:38 49.92317 36.28293 495 ft 1 kts 267°
2026-04-29 13:38 49.92295 36.28280 494 ft 5 kts 194°
2026-04-29 13:38 49.92262 36.28237 493 ft 7 kts 251°
2026-04-29 13:39 49.92263 36.28168 493 ft 6 kts 323°
2026-04-29 13:39 49.92299 36.28139 494 ft 5 kts 335°
2026-04-29 13:39 49.92328 36.28120 495 ft 3 kts 341°
2026-04-29 13:39 49.92361 36.28112 495 ft 4 kts 353°
2026-04-29 13:40 49.92395 36.28106 496 ft 6 kts 351°
2026-04-29 13:40 49.92445 36.28097 497 ft 2 kts 44°
2026-04-29 13:40 49.92458 36.28154 498 ft 7 kts 78°
2026-04-29 13:40 49.92466 36.28271 499 ft 14 kts 85°
2026-04-29 13:41 49.92481 36.28448 499 ft 17 kts 83°
2026-04-29 13:41 49.92491 36.28585 499 ft 17 kts 82°
2026-04-29 13:41 49.92507 36.28770 499 ft 17 kts 82°
2026-04-29 13:41 49.92522 36.28957 500 ft 16 kts 86°
2026-04-29 13:42 49.92538 36.29136 500 ft 16 kts 81°
2026-04-29 13:42 49.92552 36.29315 501 ft 16 kts 82°
2026-04-29 13:42 49.92567 36.29491 502 ft 16 kts 84°
2026-04-29 13:42 49.92580 36.29663 503 ft 16 kts 83°
2026-04-29 13:43 49.92595 36.29837 503 ft 16 kts 82°
2026-04-29 13:43 49.92610 36.30022 500 ft 18 kts 82°
2026-04-29 13:43 49.92625 36.30233 497 ft 20 kts 82°
2026-04-29 13:43 49.92644 36.30450 496 ft 21 kts 83°
2026-04-29 13:44 49.92663 36.30681 496 ft 20 kts 76°
2026-04-29 13:44 49.92740 36.30796 501 ft 13 kts
2026-04-29 13:44 49.92820 36.30748 502 ft 12 kts 326°
2026-04-29 13:44 49.92829 36.30709 503 ft 5 kts 237°
2026-04-29 13:45 49.92800 36.30429 503 ft 67 kts 263°
2026-04-29 13:45 49.92703 36.29259 513 ft 146 kts 263°
2026-04-29 13:45 49.92529 36.27558 1153 ft 167 kts 263°
2026-04-29 13:45 49.92366 36.25887 2250 ft 160 kts 263°
2026-04-29 13:46 49.92215 36.24216 3096 ft 167 kts 264°
2026-04-29 13:46 49.92108 36.22315 3808 ft 183 kts 267°
2026-04-29 13:46 49.91994 36.20336 4537 ft 198 kts 265°
2026-04-29 13:46 49.91826 36.18149 5289 ft 213 kts 264°
2026-04-29 13:47 49.91628 36.15806 5900 ft 235 kts 263°
2026-04-29 13:47 49.91393 36.13190 6087 ft 260 kts 260°
2026-04-29 13:47 49.90680 36.10580 7101 ft 266 kts 239°
2026-04-29 13:47 49.89625 36.08338 8262 ft 264 kts 234°
2026-04-29 13:48 49.88512 36.06056 9277 ft 267 kts 236°
2026-04-29 13:48 49.87451 36.03706 10247 ft 271 kts 238°
2026-04-29 13:48 49.86396 36.01257 11011 ft 282 kts 238°
2026-04-29 13:48 49.85298 35.98664 11699 ft 297 kts 238°
2026-04-29 13:49 49.84149 35.95942 12384 ft 311 kts 238°
2026-04-29 13:49 49.82939 35.93089 13175 ft 322 kts 238°
2026-04-29 13:49 49.81701 35.90183 14262 ft 325 kts 238°
2026-04-29 13:49 49.80461 35.87290 15304 ft 328 kts 238°
2026-04-29 13:50 49.79219 35.84391 16416 ft 329 kts 238°
2026-04-29 13:50 49.77953 35.81433 17411 ft 333 kts 238°
2026-04-29 13:50 49.76668 35.78429 18329 ft 339 kts 238°
2026-04-29 13:50 49.75368 35.75390 19363 ft 339 kts 238°
2026-04-29 13:51 49.74087 35.72393 20348 ft 340 kts 239°
2026-04-29 13:51 49.72785 35.69353 21214 ft 344 kts 239°
2026-04-29 13:51 49.71477 35.66304 21987 ft 342 kts 239°
2026-04-29 13:51 49.70163 35.63227 22455 ft 340 kts 239°
2026-04-29 13:52 49.68826 35.60102 22732 ft 354 kts 239°
2026-04-29 13:52 49.67473 35.56958 23666 ft 352 kts 239°
2026-04-29 13:52 49.66119 35.53825 24496 ft 354 kts 239°
2026-04-29 13:52 49.64780 35.50699 25159 ft 357 kts 239°
2026-04-29 13:53 49.63408 35.47492 25796 ft 362 kts 239°
2026-04-29 13:53 49.62001 35.44223 26382 ft 367 kts 239°
2026-04-29 13:53 49.60585 35.40962 27001 ft 370 kts 239°
2026-04-29 13:53 49.59158 35.37687 27571 ft 374 kts 239°
2026-04-29 13:54 49.57692 35.34325 28101 ft 379 kts 238°
2026-04-29 13:54 49.56218 35.30943 28551 ft 384 kts 238°
2026-04-29 13:54 49.54736 35.27542 29065 ft 386 kts 238°
2026-04-29 13:54 49.53242 35.24118 29555 ft 389 kts 238°
2026-04-29 13:55 49.51728 35.20651 29910 ft 395 kts 238°
2026-04-29 13:55 49.50207 35.17167 30374 ft 398 kts 238°
2026-04-29 13:55 49.48657 35.13622 30737 ft 402 kts 238°
2026-04-29 13:55 49.47087 35.10034 31007 ft 408 kts 238°
2026-04-29 13:56 49.45511 35.06437 31410 ft 410 kts 238°
2026-04-29 13:56 49.43911 35.02795 31897 ft 409 kts 238°
2026-04-29 13:56 49.42330 34.99202 32284 ft 410 kts 238°
2026-04-29 13:56 49.40730 34.95570 32643 ft 412 kts 237°
2026-04-29 13:57 49.39126 34.91932 32997 ft 415 kts 238°
2026-04-29 13:57 49.37522 34.88298 33361 ft 416 kts 238°
2026-04-29 13:57 49.35906 34.84642 33730 ft 418 kts 238°
2026-04-29 13:57 49.34271 34.80947 34189 ft 418 kts 238°
2026-04-29 13:58 49.32648 34.77289 34649 ft 418 kts 238°
2026-04-29 13:58 49.31031 34.73643 35074 ft 418 kts 238°
2026-04-29 13:58 49.29392 34.69955 35526 ft 418 kts 238°
2026-04-29 13:58 49.27755 34.66279 35895 ft 419 kts 238°
2026-04-29 13:59 49.26133 34.62629 36134 ft 423 kts 238°
2026-04-29 13:59 49.24464 34.58885 36159 ft 424 kts 238°
2026-04-29 13:59 49.21159 34.51497 36166 ft 419 kts 237°
2026-04-29 14:00 49.17857 34.44139 36172 ft 422 kts 237°
2026-04-29 14:00 49.14534 34.36752 36167 ft 421 kts 238°
2026-04-29 14:01 49.11201 34.29363 36174 ft 420 kts 237°
2026-04-29 14:01 49.07886 34.22026 36167 ft 420 kts 237°
2026-04-29 14:02 49.04590 34.14753 36171 ft 420 kts 237°
2026-04-29 14:02 49.01261 34.07431 36166 ft 421 kts 237°
2026-04-29 14:03 48.97937 34.00144 36164 ft 421 kts 237°
2026-04-29 14:03 48.94601 33.92847 36183 ft 422 kts 237°
2026-04-29 14:04 48.91273 33.85586 36177 ft 420 kts 237°
2026-04-29 14:04 48.87934 33.78322 36181 ft 420 kts 237°
2026-04-29 14:05 48.84592 33.71074 36179 ft 421 kts 237°
2026-04-29 14:05 48.81261 33.63792 36181 ft 421 kts 238°
2026-04-29 14:06 48.77929 33.56583 36185 ft 421 kts 237°
2026-04-29 14:06 48.74563 33.49381 36189 ft 419 kts 237°
2026-04-29 14:07 48.71194 33.42177 36180 ft 421 kts 237°
2026-04-29 14:07 48.67829 33.34985 36178 ft 419 kts 236°
2026-04-29 14:08 48.64467 33.27813 36169 ft 420 kts 237°
2026-04-29 14:08 48.61091 33.20628 36179 ft 421 kts 237°
2026-04-29 14:09 48.57715 33.13459 36189 ft 420 kts 237°
2026-04-29 14:09 48.54350 33.06335 36171 ft 420 kts 237°
2026-04-29 14:10 48.50972 32.99200 36175 ft 419 kts 237°
2026-04-29 14:10 48.47575 32.92045 36173 ft 420 kts 237°
2026-04-29 14:11 48.44199 32.84951 36180 ft 420 kts 237°
2026-04-29 14:11 48.40792 32.77812 36176 ft 420 kts 237°
2026-04-29 14:12 48.37416 32.70750 36169 ft 419 kts 237°
2026-04-29 14:12 48.34217 32.63437 36176 ft 419 kts 242°
2026-04-29 14:13 48.31402 32.55835 36173 ft 417 kts 244°
2026-04-29 14:13 48.28658 32.48215 36181 ft 417 kts 244°
2026-04-29 14:14 48.25885 32.40596 36179 ft 416 kts 244°
2026-04-29 14:14 48.23085 32.32999 36169 ft 418 kts 243°
2026-04-29 14:15 48.20280 32.25451 36184 ft 417 kts 243°
2026-04-29 14:15 48.17450 32.17876 36173 ft 417 kts 243°
2026-04-29 14:16 48.14627 32.10340 36179 ft 417 kts 243°
2026-04-29 14:16 48.11797 32.02810 36172 ft 417 kts 243°
2026-04-29 14:17 48.08949 31.95252 36174 ft 415 kts 243°
2026-04-29 14:17 48.06123 31.87777 36180 ft 418 kts 243°
2026-04-29 14:18 48.03277 31.80269 36172 ft 416 kts 243°
2026-04-29 14:18 48.00426 31.72771 36190 ft 416 kts 243°
2026-04-29 14:19 47.97577 31.65297 36179 ft 416 kts 243°
2026-04-29 14:19 47.94837 31.57755 36201 ft 414 kts 248°
2026-04-29 14:20 47.92604 31.49923 36189 ft 413 kts 251°
2026-04-29 14:20 47.90500 31.41993 36192 ft 414 kts 251°
2026-04-29 14:21 47.88363 31.34026 36193 ft 413 kts 250°
2026-04-29 14:21 47.86226 31.26195 36199 ft 412 kts 250°
2026-04-29 14:22 47.84052 31.18320 36184 ft 411 kts 250°
2026-04-29 14:22 47.81876 31.10487 36190 ft 413 kts 250°
2026-04-29 14:23 47.79692 31.02661 36192 ft 411 kts 250°
2026-04-29 14:23 47.77495 30.94818 36186 ft 411 kts 250°
2026-04-29 14:24 47.75301 30.87013 36181 ft 411 kts 250°
2026-04-29 14:24 47.73107 30.79229 36194 ft 411 kts 250°
2026-04-29 14:25 47.70904 30.71445 36044 ft 405 kts 250°
2026-04-29 14:25 47.69836 30.67687 35644 ft 401 kts 250°
2026-04-29 14:25 47.68738 30.63857 35060 ft 407 kts 250°
2026-04-29 14:26 47.67612 30.59989 34442 ft 416 kts 250°
2026-04-29 14:26 47.66460 30.56012 33799 ft 422 kts 251°
2026-04-29 14:26 47.65328 30.52031 33351 ft 415 kts 251°
2026-04-29 14:26 47.64220 30.48129 32861 ft 411 kts 251°
2026-04-29 14:27 47.63128 30.44280 32254 ft 410 kts 251°
2026-04-29 14:27 47.62033 30.40436 31911 ft 399 kts 252°
2026-04-29 14:27 47.60965 30.36706 31536 ft 391 kts 252°
2026-04-29 14:28 47.58873 30.29420 30309 ft 382 kts 251°
2026-04-29 14:28 47.57833 30.25807 29621 ft 379 kts 251°
2026-04-29 14:28 47.56821 30.22300 29000 ft 374 kts 251°
2026-04-29 14:28 47.55806 30.18787 28311 ft 371 kts 251°
2026-04-29 14:29 47.54802 30.15321 27647 ft 367 kts 251°
2026-04-29 14:29 47.53809 30.11897 27008 ft 363 kts 251°
2026-04-29 14:29 47.52826 30.08511 26383 ft 357 kts 251°
2026-04-29 14:29 47.51854 30.05170 25863 ft 350 kts 251°
2026-04-29 14:30 47.50905 30.01909 25351 ft 344 kts 251°
2026-04-29 14:30 47.49957 29.98650 24848 ft 348 kts 251°
2026-04-29 14:30 47.49006 29.95375 24341 ft 349 kts 251°
2026-04-29 14:30 47.48048 29.92093 23817 ft 343 kts 251°
2026-04-29 14:31 47.47123 29.88939 23323 ft 335 kts 251°
2026-04-29 14:31 47.46201 29.85798 22839 ft 334 kts 251°
2026-04-29 14:31 47.45270 29.82621 22332 ft 337 kts 251°
2026-04-29 14:31 47.44349 29.79496 21826 ft 330 kts 250°
2026-04-29 14:32 47.43444 29.76430 21344 ft 323 kts 250°
2026-04-29 14:32 47.42543 29.73375 20860 ft 328 kts 251°
2026-04-29 14:32 47.41645 29.70323 20368 ft 326 kts 250°
2026-04-29 14:32 47.40746 29.67282 19879 ft 319 kts 250°
2026-04-29 14:33 47.39865 29.64308 19402 ft 319 kts 250°
2026-04-29 14:33 47.38972 29.61280 18914 ft 322 kts 250°
2026-04-29 14:33 47.38090 29.58298 18428 ft 314 kts 250°
2026-04-29 14:33 47.37224 29.55382 17960 ft 313 kts 250°
2026-04-29 14:34 47.36348 29.52424 17480 ft 318 kts 250°
2026-04-29 14:34 47.35468 29.49463 16981 ft 315 kts 250°
2026-04-29 14:34 47.34595 29.46523 16499 ft 308 kts 250°
2026-04-29 14:34 47.33747 29.43673 16026 ft 309 kts 250°
2026-04-29 14:35 47.32880 29.40752 15543 ft 311 kts 250°
2026-04-29 14:35 47.32033 29.37876 14919 ft 308 kts 251°
2026-04-29 14:35 47.31254 29.34945 14330 ft 303 kts 252°
2026-04-29 14:35 47.30547 29.32095 13915 ft 296 kts 253°
2026-04-29 14:36 47.29832 29.29184 13470 ft 307 kts 253°
2026-04-29 14:36 47.29092 29.26243 12999 ft 306 kts 252°
2026-04-29 14:36 47.28357 29.23375 12541 ft 300 kts 252°
2026-04-29 14:36 47.27623 29.20516 12088 ft 306 kts 252°
2026-04-29 14:37 47.26865 29.17557 11609 ft 308 kts 251°
2026-04-29 14:37 47.26120 29.14651 11143 ft 302 kts 251°
2026-04-29 14:37 47.25396 29.11808 10811 ft 292 kts 252°
2026-04-29 14:37 47.24693 29.09063 10617 ft 279 kts 251°
2026-04-29 14:38 47.24017 29.06422 10522 ft 281 kts 251°
2026-04-29 14:38 47.23330 29.03755 10410 ft 273 kts 251°
2026-04-29 14:38 47.22675 29.01217 10251 ft 261 kts 251°
2026-04-29 14:38 47.22036 28.98757 9952 ft 256 kts 251°
2026-04-29 14:39 47.21403 28.96338 9691 ft 250 kts 250°
2026-04-29 14:39 47.20622 28.94062 9494 ft 259 kts 238°
2026-04-29 14:39 47.19268 28.92276 9170 ft 263 kts 210°
2026-04-29 14:39 47.17523 28.91566 8845 ft 264 kts 186°
2026-04-29 14:40 47.15678 28.91703 8500 ft 270 kts 172°
2026-04-29 14:40 47.13917 28.92659 8156 ft 273 kts 147°
2026-04-29 14:40 47.12473 28.94411 7816 ft 269 kts 136°
2026-04-29 14:40 47.11152 28.96331 7469 ft 265 kts 134°
2026-04-29 14:41 47.09839 28.98201 7132 ft 262 kts 136°
2026-04-29 14:41 47.08520 28.99990 6807 ft 260 kts 136°
2026-04-29 14:41 47.07169 29.01786 6464 ft 265 kts 136°
2026-04-29 14:41 47.05798 29.03594 6129 ft 263 kts 136°
2026-04-29 14:42 47.04442 29.05372 5789 ft 260 kts 136°
2026-04-29 14:42 47.03112 29.07120 5459 ft 258 kts 136°
2026-04-29 14:42 47.01791 29.08864 5129 ft 256 kts 136°
2026-04-29 14:42 47.00481 29.10596 4799 ft 253 kts 136°
2026-04-29 14:43 46.99175 29.12320 4523 ft 249 kts 136°
2026-04-29 14:43 46.97928 29.13961 4423 ft 238 kts 136°
2026-04-29 14:43 46.96673 29.15614 4327 ft 243 kts 136°
2026-04-29 14:43 46.95445 29.17231 4200 ft 234 kts 136°
2026-04-29 14:44 46.94192 29.18683 4077 ft 226 kts 147°
2026-04-29 14:44 46.92769 29.19514 3977 ft 220 kts 167°
2026-04-29 14:44 46.91268 29.19601 3853 ft 214 kts 187°
2026-04-29 14:44 46.89843 29.18956 3494 ft 219 kts 208°
2026-04-29 14:45 46.88653 29.17618 3365 ft 211 kts 230°
2026-04-29 14:45 46.87894 29.15838 3225 ft 205 kts 251°
2026-04-29 14:45 46.87625 29.13849 3000 ft 201 kts 272°
2026-04-29 14:45 46.87866 29.11860 2743 ft 199 kts 294°
2026-04-29 14:46 46.88586 29.10153 2478 ft 197 kts 315°
2026-04-29 14:46 46.89558 29.08775 2244 ft 195 kts 319°
2026-04-29 14:46 46.90476 29.07346 2023 ft 188 kts 310°
2026-04-29 14:46 46.91161 29.05823 1780 ft 172 kts 303°
2026-04-29 14:47 46.91697 29.04362 1585 ft 154 kts 300°
2026-04-29 14:47 46.92114 29.03009 1377 ft 139 kts 295°
2026-04-29 14:47 46.92401 29.01741 1202 ft 126 kts 288°
2026-04-29 14:47 46.92590 29.00482 1045 ft 130 kts 284°
2026-04-29 14:48 46.92721 28.99196 866 ft 138 kts 277°
2026-04-29 14:48 46.92751 28.97844 756 ft 130 kts 278°
2026-04-29 14:48 46.92884 28.96518 528 ft 130 kts 284°
2026-04-29 14:48 46.93002 28.95246 337 ft 122 kts 281°
2026-04-29 14:49 46.93102 28.94105 302 ft 102 kts 279°
2026-04-29 14:49 46.93160 28.93368 319 ft 50 kts 275°
2026-04-29 14:49 46.93180 28.93095 325 ft 7 kts 276°
2026-04-29 14:49 46.93189 28.92996 327 ft 11 kts 277°
2026-04-29 14:50 46.93200 28.92881 329 ft 11 kts 276°
2026-04-29 14:50 46.93211 28.92761 331 ft 11 kts 287°
2026-04-29 14:50 46.93233 28.92734 332 ft 0 kts 346°
2026-04-29 14:50 46.93254 28.92728 332 ft 5 kts 353°
2026-04-29 14:51 46.93296 28.92735 332 ft 7 kts
2026-04-29 14:51 46.93350 28.92747 332 ft 7 kts
2026-04-29 14:51 46.93401 28.92752 333 ft 6 kts
2026-04-29 14:51 46.93450 28.92758 333 ft 7 kts
2026-04-29 14:52 46.93479 28.92811 331 ft 9 kts 91°
2026-04-29 14:52 46.93473 28.92930 328 ft 12 kts 97°
2026-04-29 14:52 46.93457 28.93068 325 ft 15 kts 101°
2026-04-29 14:52 46.93442 28.93236 321 ft 18 kts 96°
2026-04-29 14:53 46.93432 28.93372 316 ft 8 kts 96°
2026-04-29 14:53 46.93424 28.93483 312 ft 13 kts 101°
2026-04-29 14:53 46.93397 28.93545 311 ft 5 kts 172°
2026-04-29 14:53 46.93366 28.93542 312 ft 0 kts 187°